Tracking 28125 objects as of 3-Oct-2023
HD Live streaming from Space Station
objects crossing your sky now

STARLINK-1542

Track STARLINK-1542 now!
10-day predictions
STARLINK-1542 is classified as:


NORAD ID: 46073
Int'l Code: 2020-055AY
Perigee: 553.5 km
Apogee: 555.2 km
Inclination: 53.1 °
Period: 95.6 minutes
Semi major axis: 6925 km
RCS: Unknown
Launch date: August 7, 2020
Source: United States (US)
Launch site: AIR FORCE EASTERN TEST RANGE (AFETR)
Your satellite tracking list
Your tracking list is empty




NASA's NSSDC Master Catalog

Two Line Element Set (TLE):
1 46073U 20055AY  23275.89323639  .00019362  00000-0  13153-2 0  9990
2 46073  53.0522 126.5773 0001224  87.7705 272.3425 15.06395989174814
Source of the keplerian elements: AFSPC